• In Belarus
  • List of Countries
  • For 7 days
  • Water Temperature
  • Weather Map
  • Weather Widgets
  • user-avatar
    Login

    Hourly Weather Tashkent

    Today, 22 January, Wednesday

    Time Temperature Precipitation Wind Pressure Humidity
    00:00 +2°C° 0.1 mm 1 mps 726 mmHg 95%
    01:00 +2°C° 0.1 mm 1 mps 726 mmHg 95%
    02:00 +2°C° 0.1 mm 1 mps 726 mmHg 95%
    03:00 +2°C° 0.2 mm 1 mps 727 mmHg 95%
    04:00 +1°C° 0.2 mm 0 mps 727 mmHg 96%
    05:00 0°C° 0.2 mm 0 mps 727 mmHg 96%
    06:00 +1°C° 0.4 mm 1 mps 727 mmHg 96%
    07:00 +1°C° 0.4 mm 1 mps 728 mmHg 97%
    08:00 +1°C° 0.4 mm 1 mps 728 mmHg 97%
    09:00 +1°C° 0.5 mm 1 mps 729 mmHg 96%
    10:00 +1°C° 0.5 mm 1 mps 729 mmHg 95%
    11:00 +1°C° 0.5 mm 1 mps 729 mmHg 94%
    12:00 +2°C° 0.1 mm 1 mps 729 mmHg 91%
    13:00 +2°C° 0.1 mm 1 mps 729 mmHg 89%
    14:00 +3°C° 0.1 mm 1 mps 729 mmHg 86%
    15:00 +1°C° 0 mm 2 mps 729 mmHg 85%
    16:00 +1°C° 0 mm 2 mps 729 mmHg 85%
    17:00 +1°C° 0 mm 2 mps 729 mmHg 84%
    18:00 +1°C° 0 mm 2 mps 729 mmHg 84%
    19:00 +2°C° 0 mm 1 mps 730 mmHg 84%
    20:00 +1°C° 0 mm 1 mps 730 mmHg 84%
    21:00 +1°C° 0 mm 1 mps 730 mmHg 82%
    22:00 +1°C° 0 mm 1 mps 730 mmHg 80%
    23:00 +1°C° 0 mm 1 mps 730 mmHg 79%

    Tomorrow, 23 January, Thursday

    Time Temperature Precipitation Wind Pressure Humidity
    00:00 0°C° 0 mm 1 mps 729 mmHg 78%
    01:00 0°C° 0 mm 1 mps 729 mmHg 78%
    02:00 0°C° 0 mm 1 mps 729 mmHg 77%
    03:00 0°C° 0 mm 1 mps 728 mmHg 75%
    04:00 0°C° 0 mm 1 mps 728 mmHg 73%
    05:00 0°C° 0 mm 1 mps 728 mmHg 71%
    06:00 0°C° 0 mm 1 mps 727 mmHg 67%
    07:00 0°C° 0 mm 1 mps 727 mmHg 64%
    08:00 0°C° 0 mm 1 mps 727 mmHg 60%
    09:00 +2°C° 0 mm 1 mps 727 mmHg 56%
    10:00 +3°C° 0 mm 1 mps 727 mmHg 51%
    11:00 +5°C° 0 mm 1 mps 726 mmHg 47%
    12:00 +6°C° 0 mm 1 mps 726 mmHg 45%
    13:00 +6°C° 0 mm 1 mps 725 mmHg 44%
    14:00 +7°C° 0 mm 1 mps 724 mmHg 43%
    15:00 +7°C° 0 mm 1 mps 724 mmHg 44%
    16:00 +5°C° 0 mm 2 mps 724 mmHg 46%
    17:00 +5°C° 0 mm 2 mps 723 mmHg 48%
    18:00 +4°C° 0 mm 2 mps 723 mmHg 49%
    19:00 +3°C° 0 mm 3 mps 723 mmHg 49%
    20:00 +3°C° 0 mm 3 mps 723 mmHg 50%
    21:00 +3°C° 0 mm 3 mps 722 mmHg 49%
    22:00 +2°C° 0 mm 3 mps 722 mmHg 49%
    23:00 +2°C° 0 mm 3 mps 721 mmHg 48%

    Day after tomorrow, 24 January, Friday

    Time Temperature Precipitation Wind Pressure Humidity
    00:00 +2°C° 0 mm 3 mps 721 mmHg 47%
    01:00 +2°C° 0 mm 3 mps 720 mmHg 47%
    02:00 +2°C° 0 mm 3 mps 720 mmHg 46%
    03:00 +3°C° 0 mm 2 mps 719 mmHg 45%
    04:00 +3°C° 0 mm 2 mps 718 mmHg 44%
    05:00 +4°C° 0 mm 1 mps 717 mmHg 44%
    06:00 +3°C° 0 mm 2 mps 717 mmHg 46%
    07:00 +3°C° 0 mm 2 mps 717 mmHg 49%
    08:00 +2°C° 0 mm 2 mps 716 mmHg 51%
    09:00 +3°C° 0 mm 2 mps 716 mmHg 51%
    10:00 +4°C° 0 mm 2 mps 716 mmHg 50%
    11:00 +5°C° 0 mm 2 mps 716 mmHg 49%
    12:00 +5°C° 0.1 mm 2 mps 717 mmHg 55%
    13:00 +3°C° 0.1 mm 3 mps 717 mmHg 61%
    14:00 +3°C° 0.1 mm 3 mps 718 mmHg 68%
    15:00 +3°C° 0.3 mm 4 mps 718 mmHg 69%
    16:00 +2°C° 0.3 mm 5 mps 718 mmHg 71%
    17:00 +2°C° 0.3 mm 6 mps 718 mmHg 73%
    18:00 +2°C° 0 mm 5 mps 719 mmHg 75%
    19:00 +4°C° 0 mm 4 mps 720 mmHg 76%
    20:00 +4°C° 0 mm 3 mps 721 mmHg 78%
    21:00 +4°C° 0 mm 3 mps 722 mmHg 78%
    22:00 +4°C° 0 mm 3 mps 722 mmHg 78%
    23:00 +4°C° 0 mm 3 mps 723 mmHg 78%

    25 January, Saturday

    Time Temperature Precipitation Wind Pressure Humidity
    00:00 +4°C° 0.1 mm 3 mps 723 mmHg 80%
    01:00 +4°C° 0.1 mm 3 mps 724 mmHg 83%
    02:00 +4°C° 0.1 mm 3 mps 724 mmHg 86%
    03:00 +5°C° 0.1 mm 2 mps 724 mmHg 87%
    04:00 +5°C° 0.1 mm 2 mps 724 mmHg 88%
    05:00 +4°C° 0.1 mm 2 mps 724 mmHg 90%
    06:00 +4°C° 0.3 mm 2 mps 724 mmHg 91%
    07:00 +3°C° 0.3 mm 3 mps 724 mmHg 92%
    08:00 +3°C° 0.3 mm 3 mps 724 mmHg 93%
    09:00 +4°C° 0.1 mm 3 mps 724 mmHg 90%
    10:00 +5°C° 0.1 mm 3 mps 724 mmHg 86%
    11:00 +5°C° 0.1 mm 3 mps 724 mmHg 82%
    12:00 +7°C° 0.1 mm 3 mps 724 mmHg 76%
    13:00 +8°C° 0.1 mm 3 mps 724 mmHg 70%
    14:00 +9°C° 0.1 mm 3 mps 724 mmHg 63%
    15:00 +8°C° 0.3 mm 3 mps 724 mmHg 68%
    16:00 +6°C° 0.3 mm 4 mps 724 mmHg 73%
    17:00 +4°C° 0.3 mm 4 mps 724 mmHg 78%
    18:00 +2°C° 1.6 mm 5 mps 725 mmHg 83%
    19:00 +1°C° 1.6 mm 5 mps 726 mmHg 89%
    20:00 -2°C° 1.6 mm 6 mps 726 mmHg 95%
    21:00 -1°C° 1.1 mm 5 mps 727 mmHg 94%
    22:00 -2°C° 1.1 mm 5 mps 727 mmHg 94%
    23:00 -3°C° 1.1 mm 4 mps 728 mmHg 94%

    26 January, Sunday

    Time Temperature Precipitation Wind Pressure Humidity
    00:00 -3°C° 0.5 mm 4 mps 728 mmHg 92%
    01:00 -4°C° 0.5 mm 3 mps 728 mmHg 91%
    02:00 -4°C° 0.5 mm 3 mps 728 mmHg 90%
    03:00 -3°C° 0 mm 2 mps 728 mmHg 88%
    04:00 -3°C° 0 mm 2 mps 728 mmHg 86%
    05:00 -3°C° 0 mm 2 mps 728 mmHg 85%
    06:00 -1°C° 0 mm 1 mps 728 mmHg 84%
    07:00 -2°C° 0 mm 1 mps 728 mmHg 83%
    08:00 -2°C° 0 mm 1 mps 728 mmHg 82%
    09:00 -1°C° 0 mm 1 mps 728 mmHg 75%
    10:00 0°C° 0 mm 1 mps 728 mmHg 69%
    11:00 +1°C° 0 mm 1 mps 728 mmHg 62%
    12:00 +1°C° 0 mm 1 mps 727 mmHg 61%
    13:00 +2°C° 0 mm 1 mps 727 mmHg 59%
    14:00 +2°C° 0 mm 1 mps 726 mmHg 57%
    15:00 +2°C° 0 mm 1 mps 726 mmHg 60%
    16:00 +2°C° 0 mm 1 mps 726 mmHg 62%
    17:00 +1°C° 0 mm 1 mps 726 mmHg 65%
    18:00 +1°C° 0 mm 1 mps 726 mmHg 66%
    19:00 0°C° 0 mm 1 mps 726 mmHg 68%
    20:00 0°C° 0 mm 1 mps 726 mmHg 70%
    21:00 0°C° 0 mm 1 mps 726 mmHg 69%
    22:00 0°C° 0 mm 1 mps 726 mmHg 69%
    23:00 0°C° 0 mm 1 mps 725 mmHg 68%

    27 January, Monday

    Time Temperature Precipitation Wind Pressure Humidity
    00:00 0°C° 0 mm 1 mps 725 mmHg 68%
    01:00 0°C° 0 mm 1 mps 725 mmHg 67%
    02:00 -1°C° 0 mm 0 mps 725 mmHg 67%
    03:00 -1°C° 0 mm 0 mps 725 mmHg 68%
    04:00 -1°C° 0 mm 0 mps 724 mmHg 69%
    05:00 -1°C° 0 mm 0 mps 724 mmHg 70%
    06:00 -1°C° 0 mm 0 mps 724 mmHg 71%
    07:00 -1°C° 0 mm 0 mps 725 mmHg 72%
    08:00 0°C° 0 mm 1 mps 725 mmHg 73%
    09:00 +1°C° 0 mm 1 mps 725 mmHg 71%
    10:00 +2°C° 0 mm 1 mps 725 mmHg 69%
    11:00 +3°C° 0 mm 1 mps 725 mmHg 67%
    12:00 +3°C° 0 mm 1 mps 725 mmHg 66%
    13:00 +4°C° 0 mm 1 mps 725 mmHg 65%
    14:00 +3°C° 0 mm 2 mps 725 mmHg 64%
    15:00 +4°C° 0 mm 1 mps 725 mmHg 66%
    16:00 +4°C° 0 mm 1 mps 725 mmHg 67%
    17:00 +3°C° 0 mm 1 mps 725 mmHg 69%
    18:00 +3°C° 0 mm 1 mps 725 mmHg 71%
    19:00 +3°C° 0 mm 1 mps 726 mmHg 72%
    20:00 +2°C° 0 mm 1 mps 726 mmHg 74%
    21:00 +2°C° 0 mm 1 mps 726 mmHg 77%
    22:00 +1°C° 0 mm 2 mps 726 mmHg 80%
    23:00 -1°C° 0 mm 2 mps 726 mmHg 83%
    Show more